Weather History for Fort Worth, TX

Change the Weather History Date:

Wednesday, June 12, 2013

  Actual Average Record
Temperature  
Mean Temperature 82 °F -  
Max Temperature 93 °F 87 °F 100 °F (1998)
Min Temperature 73 °F 67 °F 59 °F (2002)
Cooling Degree Days 17    
Growing Degree Days 32 (Base 50)    
Moisture  
Dew Point 71 °F    
Average Humidity 67    
Maximum Humidity 96    
Minimum Humidity 47    
Precipitation  
Precipitation 0.00 in - - ()
Sea Level Pressure  
Sea Level Pressure 29.96 in    
Wind  
Wind Speed 11 mph (South)    
Max Wind Speed 17 mph    
Max Gust Speed 24 mph    
Visibility 10 miles    
Events      
Averages and records for this station are not official NWS values.
T = Trace of Precipitation, MM = Missing Value Source: NWS Daily Summary

Daily Weather History Graph

Daily Weather History Graph

Search for Another Location

Airport:

Trip Planner

Search our weather history database for the weather conditions in past years. The results will help you decide how hot, cold, wet, or windy it might be!

Date:

Astronomy

Jun. 12, 2013 Rise Set
Actual Time 6:20 AM CDT 8:38 PM CDT
Civil Twilight 5:52 AM CDT 9:06 PM CDT
Nautical Twilight 5:17 AM CDT 9:41 PM CDT
Astronomical Twilight 4:39 AM CDT 10:19 PM CDT
Moon 9:52 AM CDT (6/12) 11:25 PM CDT (6/12)
Length of Visible Light 15h 14m
Length of Day
14h 17m
Waxing Crescent, 14% of the Moon is Illuminated
Jun 12
Waxing Crescent
Jun 16
First Quarter
Jun 23
Full
Jun 29
Last Quarter
Jul 8
New

Hourly Weather History & Observations

Time (CDT) Temp. Heat Index Dew Point Humidity Pressure Visibility Wind Dir Wind Speed Gust Speed Precip Events Conditions
12:53 AM 80.1 °F 83.2 °F 70.0 °F 71% 29.94 in 10.0 mi South 13.8 mph - N/A   Clear
1:53 AM 79.0 °F - 71.1 °F 77% 29.93 in 10.0 mi South 11.5 mph 20.7 mph N/A   Clear
2:53 AM 77.0 °F - 71.1 °F 82% 29.93 in 10.0 mi South 11.5 mph - N/A   Clear
3:53 AM 77.0 °F - 70.0 °F 79% 29.94 in 10.0 mi South 13.8 mph - N/A   Clear
4:53 AM 75.0 °F - 70.0 °F 84% 29.96 in 10.0 mi SSW 8.1 mph - N/A   Clear
5:53 AM 73.9 °F - 71.1 °F 91% 29.97 in 10.0 mi South 8.1 mph - N/A   Clear
6:53 AM 73.0 °F - 72.0 °F 96% 29.99 in 10.0 mi SSW 3.5 mph - N/A   Clear
7:53 AM 75.9 °F - 73.0 °F 91% 30.01 in 10.0 mi SSW 8.1 mph - N/A   Clear
8:53 AM 79.0 °F - 73.0 °F 82% 30.03 in 10.0 mi SSW 10.4 mph - N/A   Partly Cloudy
9:53 AM 82.0 °F 87.4 °F 73.0 °F 74% 30.02 in 10.0 mi SSW 15.0 mph - N/A   Partly Cloudy
10:53 AM 84.0 °F 89.6 °F 72.0 °F 67% 30.01 in 10.0 mi South 15.0 mph 23.0 mph N/A   Clear
11:53 AM 87.1 °F 93.6 °F 72.0 °F 61% 30.01 in 10.0 mi SSW 9.2 mph 24.2 mph N/A   Clear
12:53 PM 89.1 °F 96.0 °F 72.0 °F 57% 30.00 in 10.0 mi SW 11.5 mph - N/A   Clear
1:53 PM 91.0 °F 98.2 °F 72.0 °F 53% 29.99 in 10.0 mi South 11.5 mph 21.9 mph N/A   Partly Cloudy
2:53 PM 91.0 °F 99.3 °F 73.0 °F 55% 29.97 in 10.0 mi South 15.0 mph 18.4 mph N/A   Partly Cloudy
3:53 PM 91.9 °F 97.4 °F 70.0 °F 48% 29.95 in 10.0 mi South 13.8 mph - N/A   Partly Cloudy
4:53 PM 91.9 °F 97.4 °F 70.0 °F 48% 29.93 in 10.0 mi South 17.3 mph 21.9 mph N/A   Partly Cloudy
5:53 PM 91.9 °F 96.9 °F 69.1 °F 47% 29.91 in 10.0 mi South 6.9 mph - N/A   Clear
6:53 PM 91.0 °F 95.6 °F 69.1 °F 48% 29.89 in 10.0 mi South 5.8 mph - N/A   Clear
7:53 PM 88.0 °F 92.9 °F 70.0 °F 55% 29.90 in 10.0 mi SSE 12.7 mph - N/A   Clear
8:53 PM 86.0 °F 88.8 °F 66.9 °F 53% 29.91 in 10.0 mi SSE 9.2 mph - N/A   Clear
9:53 PM 82.9 °F 85.8 °F 68.0 °F 60% 29.93 in 10.0 mi SE 5.8 mph - N/A   Clear
10:53 PM 82.0 °F 85.5 °F 69.1 °F 65% 29.94 in 10.0 mi SE 5.8 mph - N/A   Clear
11:53 PM 82.9 °F 86.5 °F 69.1 °F 63% 29.94 in 10.0 mi South 9.2 mph - N/A   Clear